User: anonymous   Login
Location: Unspecified
(0.0000°N, 0.0000°E)
Time: 00:33:41
(UTC+02:00)
Language:

ATLAS 5 CENTAUR R/B - Orbit

View from above orbital plane
View from above orbital plane
View from above satellite
View from above satellite

Ground track
Ground track

The orbit data is extracted from the following two-line orbital elements,

1 31702U 07027B   17086.04619310 0.00000200  00000-0  67473-4 0    01
2 31702  63.3682 102.1865 0267315   2.9516 357.0483 14.18553795    01
Epoch (UTC): 27 March 2017 01:06:31
Eccentricity: 0.0267315
inclination: 63.3682°
perigee height: 637 km
apogee height: 1023 km
right ascension of ascending node: 102.1865°
argument of perigee: 2.9516°
revolutions per day: 14.18553795
mean anomaly at epoch: 357.0483°
orbit number at epoch: 0

The dashed part of the orbit path shows where the satellite is in the earth's shadow,  

DLR